Location: Gro�sch�nbrunn
(49.5760°N, 11.8868°E)
Time: 07:03:07
(UTC+00:00)

Cosmos 2150 Rocket - Pass Details

Date: 18 September 2020
Orbit: 748 x 808 km, 74.0° (Epoch: 19 October)

Event Time Altitude Azimuth Distance (km) Brightness Sun altitude
Rises 18:46:23 0° 183° (S) 3,261 7.1 -14.8°
Reaches altitude 10° 18:48:49 10° 177° (S) 2,346 6.3 -15.1°
Maximum altitude 18:53:54 47° 105° (ESE) 1,053 4.3 -15.9°
Drops below altitude 10° 18:59:06 10° 33° (NNE) 2,393 6.5 -16.7°
Sets 19:01:36 0° 28° (NNE) 3,333 7.3 -17.0°
